Year,Month,Day,Hour,Minute,Value (Times are PST for temperature in C)
2018,08,02,00,00,14.30
2018,08,02,00,01,14.30
2018,08,02,00,02,14.30
2018,08,02,00,03,14.20
2018,08,02,00,04,14.20
2018,08,02,00,05,14.10
2018,08,02,00,06,14.10
2018,08,02,00,07,14.10
2018,08,02,00,08,14.10
2018,08,02,00,09,14.00
2018,08,02,00,10,14.00
2018,08,02,00,11,14.10
2018,08,02,00,12,14.10
2018,08,02,00,13,14.10
2018,08,02,00,14,14.10
2018,08,02,00,15,14.10
2018,08,02,00,16,14.10
2018,08,02,00,17,14.20
2018,08,02,00,18,14.20
2018,08,02,00,19,14.20
2018,08,02,00,20,14.30
2018,08,02,00,21,14.30
2018,08,02,00,22,14.40
2018,08,02,00,23,14.50
2018,08,02,00,24,14.50
2018,08,02,00,25,14.50
2018,08,02,00,26,14.50
2018,08,02,00,27,14.50
2018,08,02,00,28,14.50
2018,08,02,00,29,14.60
2018,08,02,00,30,14.60
2018,08,02,00,31,14.60
2018,08,02,00,32,14.50
2018,08,02,00,33,14.50
2018,08,02,00,34,14.50
2018,08,02,00,35,14.40
2018,08,02,00,36,14.40
2018,08,02,00,37,14.50
2018,08,02,00,38,14.50
2018,08,02,00,39,14.60
2018,08,02,00,40,14.60
2018,08,02,00,41,14.60
2018,08,02,00,42,14.60
2018,08,02,00,43,14.60
2018,08,02,00,44,14.60
2018,08,02,00,45,14.60
2018,08,02,00,46,14.60
2018,08,02,00,47,14.60
2018,08,02,00,48,14.60
2018,08,02,00,49,14.60
2018,08,02,00,50,14.50
2018,08,02,00,51,14.50
2018,08,02,00,52,14.50
2018,08,02,00,53,14.50
2018,08,02,00,54,14.50
2018,08,02,00,55,14.40
2018,08,02,00,56,14.40
2018,08,02,00,57,14.30
2018,08,02,00,58,14.30
2018,08,02,00,59,14.20
2018,08,02,01,00,14.20
2018,08,02,01,01,14.10
2018,08,02,01,02,14.10
2018,08,02,01,03,14.10
2018,08,02,01,04,14.00
2018,08,02,01,05,14.00
2018,08,02,01,06,13.90
2018,08,02,01,07,13.80
2018,08,02,01,08,13.80
2018,08,02,01,09,13.80
2018,08,02,01,10,13.70
2018,08,02,01,11,13.70
2018,08,02,01,12,13.70
2018,08,02,01,13,13.60
2018,08,02,01,14,13.60
2018,08,02,01,15,13.60
2018,08,02,01,16,13.60
2018,08,02,01,17,13.50
2018,08,02,01,18,13.50
2018,08,02,01,19,13.40
2018,08,02,01,20,13.40
2018,08,02,01,21,13.40
2018,08,02,01,22,13.40
2018,08,02,01,23,13.40
2018,08,02,01,24,13.30
2018,08,02,01,25,13.30
2018,08,02,01,26,13.30
2018,08,02,01,27,13.40
2018,08,02,01,28,13.40
2018,08,02,01,29,13.40
2018,08,02,01,30,13.50
2018,08,02,01,31,13.50
2018,08,02,01,32,13.50
2018,08,02,01,33,13.50
2018,08,02,01,34,13.50
2018,08,02,01,35,13.60
2018,08,02,01,36,13.70
2018,08,02,01,37,13.70
2018,08,02,01,38,13.80
2018,08,02,01,39,13.90
2018,08,02,01,40,13.90
2018,08,02,01,41,13.90
2018,08,02,01,42,13.90
2018,08,02,01,43,13.80
2018,08,02,01,44,13.80
2018,08,02,01,45,13.80
2018,08,02,01,46,13.80
2018,08,02,01,47,13.70
2018,08,02,01,48,13.70
2018,08,02,01,49,13.70
2018,08,02,01,50,13.60
2018,08,02,01,51,13.60
2018,08,02,01,52,13.60
2018,08,02,01,53,13.60
2018,08,02,01,54,13.60
2018,08,02,01,55,13.50
2018,08,02,01,56,13.50
2018,08,02,01,57,13.50
2018,08,02,01,58,13.50
2018,08,02,01,59,13.40
2018,08,02,02,00,13.40
2018,08,02,02,01,13.40
2018,08,02,02,02,13.40
2018,08,02,02,03,13.40
2018,08,02,02,04,13.40
2018,08,02,02,05,13.40
2018,08,02,02,06,13.30
2018,08,02,02,07,13.30
2018,08,02,02,08,13.30
2018,08,02,02,09,13.30
2018,08,02,02,10,13.30
2018,08,02,02,11,13.30
2018,08,02,02,12,13.30
2018,08,02,02,13,13.30
2018,08,02,02,14,13.20
2018,08,02,02,15,13.20
2018,08,02,02,16,13.20
2018,08,02,02,17,13.20
2018,08,02,02,18,13.20
2018,08,02,02,19,13.20
2018,08,02,02,20,13.20
2018,08,02,02,21,13.20
2018,08,02,02,22,13.30
2018,08,02,02,23,13.30
2018,08,02,02,24,13.40
2018,08,02,02,25,13.50
2018,08,02,02,26,13.60
2018,08,02,02,27,13.70
2018,08,02,02,28,13.70
2018,08,02,02,29,13.70
2018,08,02,02,30,13.70
2018,08,02,02,31,13.70
2018,08,02,02,32,13.60
2018,08,02,02,33,13.60
2018,08,02,02,34,13.60
2018,08,02,02,35,13.60
2018,08,02,02,36,13.50
2018,08,02,02,37,13.50
2018,08,02,02,38,13.50
2018,08,02,02,39,13.40
2018,08,02,02,40,13.40
2018,08,02,02,41,13.40
2018,08,02,02,42,13.30
2018,08,02,02,43,13.30
2018,08,02,02,44,13.30
2018,08,02,02,45,13.30
2018,08,02,02,46,13.20
2018,08,02,02,47,13.20
2018,08,02,02,48,13.10
2018,08,02,02,49,13.10
2018,08,02,02,50,13.00
2018,08,02,02,51,12.90
2018,08,02,02,52,12.90
2018,08,02,02,53,12.80
2018,08,02,02,54,12.80
2018,08,02,02,55,12.70
2018,08,02,02,56,12.70
2018,08,02,02,57,12.60
2018,08,02,02,58,12.60
2018,08,02,02,59,12.60
2018,08,02,03,00,12.50
2018,08,02,03,01,12.40
2018,08,02,03,02,12.40
2018,08,02,03,03,12.40
2018,08,02,03,04,12.30
2018,08,02,03,05,12.20
2018,08,02,03,06,12.20
2018,08,02,03,07,12.20
2018,08,02,03,08,12.20
2018,08,02,03,09,12.20
2018,08,02,03,10,12.20
2018,08,02,03,11,12.20
2018,08,02,03,12,12.20
2018,08,02,03,13,12.10
2018,08,02,03,14,12.10
2018,08,02,03,15,12.10
2018,08,02,03,16,12.10
2018,08,02,03,17,12.10
2018,08,02,03,18,12.10
2018,08,02,03,19,12.10
2018,08,02,03,20,12.10
2018,08,02,03,21,12.10
2018,08,02,03,22,12.10
2018,08,02,03,23,12.10
2018,08,02,03,24,12.10
2018,08,02,03,25,12.10
2018,08,02,03,26,12.10
2018,08,02,03,27,12.10
2018,08,02,03,28,12.10
2018,08,02,03,29,12.10
2018,08,02,03,30,12.20
2018,08,02,03,31,12.20
2018,08,02,03,32,12.30
2018,08,02,03,33,12.40
2018,08,02,03,34,12.50
2018,08,02,03,35,12.50
2018,08,02,03,36,12.60
2018,08,02,03,37,12.60
2018,08,02,03,38,12.60
2018,08,02,03,39,12.70
2018,08,02,03,40,12.70
2018,08,02,03,41,12.70
2018,08,02,03,42,12.90
2018,08,02,03,43,13.10
2018,08,02,03,44,13.20
2018,08,02,03,45,13.30
2018,08,02,03,46,13.30
2018,08,02,03,47,13.20
2018,08,02,03,48,13.30
2018,08,02,03,49,13.30
2018,08,02,03,50,13.30
2018,08,02,03,51,13.40
2018,08,02,03,52,13.40
2018,08,02,03,53,13.40
2018,08,02,03,54,13.30
2018,08,02,03,55,13.30
2018,08,02,03,56,13.20
2018,08,02,03,57,13.10
2018,08,02,03,58,13.10
2018,08,02,03,59,13.00
2018,08,02,04,00,13.00
2018,08,02,04,01,12.90
2018,08,02,04,02,12.80
2018,08,02,04,03,12.80
2018,08,02,04,04,12.80
2018,08,02,04,05,12.90
2018,08,02,04,06,12.90
2018,08,02,04,07,12.90
2018,08,02,04,08,12.90
2018,08,02,04,09,12.90
2018,08,02,04,10,12.90
2018,08,02,04,11,12.80
2018,08,02,04,12,12.80
2018,08,02,04,13,12.80
2018,08,02,04,14,12.80
2018,08,02,04,15,12.70
2018,08,02,04,16,12.70
2018,08,02,04,17,12.70
2018,08,02,04,18,12.70
2018,08,02,04,19,12.70
2018,08,02,04,20,12.70
2018,08,02,04,21,12.70
2018,08,02,04,22,12.60
2018,08,02,04,23,12.60
2018,08,02,04,24,12.60
2018,08,02,04,25,12.60
2018,08,02,04,26,12.60
2018,08,02,04,27,12.60
2018,08,02,04,28,12.60
2018,08,02,04,29,12.60
2018,08,02,04,30,12.60
2018,08,02,04,31,12.60
2018,08,02,04,32,12.50
2018,08,02,04,33,12.50
2018,08,02,04,34,12.40
2018,08,02,04,35,12.40
2018,08,02,04,36,12.30
2018,08,02,04,37,12.20
2018,08,02,04,38,12.10
2018,08,02,04,39,12.00
2018,08,02,04,40,11.90
2018,08,02,04,41,11.90
2018,08,02,04,42,11.90
2018,08,02,04,43,12.00
2018,08,02,04,44,12.10
2018,08,02,04,45,12.30
2018,08,02,04,46,12.40
2018,08,02,04,47,12.60
2018,08,02,04,48,12.60
2018,08,02,04,49,12.60
2018,08,02,04,50,12.50
2018,08,02,04,51,12.50
2018,08,02,04,52,12.50
2018,08,02,04,53,12.50
2018,08,02,04,54,12.50
2018,08,02,04,55,12.40
2018,08,02,04,56,12.40
2018,08,02,04,57,12.40
2018,08,02,04,58,12.40
2018,08,02,04,59,12.50
2018,08,02,05,00,12.50
2018,08,02,05,01,12.50
2018,08,02,05,02,12.40
2018,08,02,05,03,12.40
2018,08,02,05,04,12.30
2018,08,02,05,05,12.20
2018,08,02,05,06,12.20
2018,08,02,05,07,12.10
2018,08,02,05,08,12.00
2018,08,02,05,09,12.00
2018,08,02,05,10,11.90
2018,08,02,05,11,11.80
2018,08,02,05,12,11.80
2018,08,02,05,13,11.80
2018,08,02,05,14,11.80
2018,08,02,05,15,11.70
2018,08,02,05,16,11.70
2018,08,02,05,17,11.70
2018,08,02,05,18,11.70
2018,08,02,05,19,11.70
2018,08,02,05,20,11.70
2018,08,02,05,21,11.60
2018,08,02,05,22,11.70
2018,08,02,05,23,11.70
2018,08,02,05,24,11.70
2018,08,02,05,25,11.70
2018,08,02,05,26,11.70
2018,08,02,05,27,11.70
2018,08,02,05,28,11.60
2018,08,02,05,29,11.60
2018,08,02,05,30,11.60
2018,08,02,05,31,11.60
2018,08,02,05,32,11.50
2018,08,02,05,33,11.50
2018,08,02,05,34,11.50
2018,08,02,05,35,11.40
2018,08,02,05,36,11.40
2018,08,02,05,37,11.40
2018,08,02,05,38,11.40
2018,08,02,05,39,11.40
2018,08,02,05,40,11.40
2018,08,02,05,41,11.40
2018,08,02,05,42,11.40
2018,08,02,05,43,11.40
2018,08,02,05,44,11.40
2018,08,02,05,45,11.40
2018,08,02,05,46,11.40
2018,08,02,05,47,11.30
2018,08,02,05,48,11.30
2018,08,02,05,49,11.30
2018,08,02,05,50,11.30
2018,08,02,05,51,11.30
2018,08,02,05,52,11.30
2018,08,02,05,53,11.30
2018,08,02,05,54,11.30
2018,08,02,05,55,11.30
2018,08,02,05,56,11.30
2018,08,02,05,57,11.30
2018,08,02,05,58,11.30
2018,08,02,05,59,11.30
2018,08,02,06,00,11.30
2018,08,02,06,01,11.30
2018,08,02,06,02,11.30
2018,08,02,06,03,11.20
2018,08,02,06,04,11.20
2018,08,02,06,05,11.20
2018,08,02,06,06,11.20
2018,08,02,06,07,11.20
2018,08,02,06,08,11.20
2018,08,02,06,09,11.20
2018,08,02,06,10,11.20
2018,08,02,06,11,11.20
2018,08,02,06,12,11.20
2018,08,02,06,13,11.20
2018,08,02,06,14,11.20
2018,08,02,06,15,11.30
2018,08,02,06,16,11.40
2018,08,02,06,17,11.50
2018,08,02,06,18,11.60
2018,08,02,06,19,11.60
2018,08,02,06,20,11.70
2018,08,02,06,21,11.70
2018,08,02,06,22,11.80
2018,08,02,06,23,11.90
2018,08,02,06,24,11.90
2018,08,02,06,25,11.90
2018,08,02,06,26,12.00
2018,08,02,06,27,12.00
2018,08,02,06,28,12.10
2018,08,02,06,29,12.10
2018,08,02,06,30,12.10
2018,08,02,06,31,12.10
2018,08,02,06,32,12.10
2018,08,02,06,33,12.10
2018,08,02,06,34,12.10
2018,08,02,06,35,12.10
2018,08,02,06,36,12.10
2018,08,02,06,37,12.00
2018,08,02,06,38,12.00
2018,08,02,06,39,12.00
2018,08,02,06,40,12.00
2018,08,02,06,41,12.10
2018,08,02,06,42,12.10
2018,08,02,06,43,12.20
2018,08,02,06,44,12.30
2018,08,02,06,45,12.40
2018,08,02,06,46,12.40
2018,08,02,06,47,12.50
2018,08,02,06,48,12.60
2018,08,02,06,49,12.70
2018,08,02,06,50,12.80
2018,08,02,06,51,12.80
2018,08,02,06,52,12.90
2018,08,02,06,53,12.90
2018,08,02,06,54,12.90
2018,08,02,06,55,13.00
2018,08,02,06,56,13.00
2018,08,02,06,57,13.00
2018,08,02,06,58,13.00
2018,08,02,06,59,13.10
2018,08,02,07,00,13.10
2018,08,02,07,01,13.10
2018,08,02,07,02,13.10
2018,08,02,07,03,13.10
2018,08,02,07,04,13.20
2018,08,02,07,05,13.20
2018,08,02,07,06,13.30
2018,08,02,07,07,13.30
2018,08,02,07,08,13.30
2018,08,02,07,09,13.40
2018,08,02,07,10,13.40
2018,08,02,07,11,13.50
2018,08,02,07,12,13.60
2018,08,02,07,13,13.60
2018,08,02,07,14,13.60
2018,08,02,07,15,13.60
2018,08,02,07,16,13.70
2018,08,02,07,17,13.70
2018,08,02,07,18,13.70
2018,08,02,07,19,13.80
2018,08,02,07,20,13.80
2018,08,02,07,21,13.90
2018,08,02,07,22,13.90
2018,08,02,07,23,14.00
2018,08,02,07,24,14.10
2018,08,02,07,25,14.20
2018,08,02,07,26,14.20
2018,08,02,07,27,14.30
2018,08,02,07,28,14.40
2018,08,02,07,29,14.50
2018,08,02,07,30,14.50
2018,08,02,07,31,14.60
2018,08,02,07,32,14.60
2018,08,02,07,33,14.70
2018,08,02,07,34,14.70
2018,08,02,07,35,14.80
2018,08,02,07,36,14.80
2018,08,02,07,37,14.90
2018,08,02,07,38,15.00
2018,08,02,07,39,15.00
2018,08,02,07,40,15.10
2018,08,02,07,41,15.20
2018,08,02,07,42,15.20
2018,08,02,07,43,15.30
2018,08,02,07,44,15.40
2018,08,02,07,45,15.40
2018,08,02,07,46,15.50
2018,08,02,07,47,15.60
2018,08,02,07,48,15.70
2018,08,02,07,49,15.70
2018,08,02,07,50,15.80
2018,08,02,07,51,15.90
2018,08,02,07,52,16.00
2018,08,02,07,53,16.00
2018,08,02,07,54,16.10
2018,08,02,07,55,16.10
2018,08,02,07,56,16.20
2018,08,02,07,57,16.20
2018,08,02,07,58,16.30
2018,08,02,07,59,16.30
2018,08,02,08,00,16.30
2018,08,02,08,01,16.40
2018,08,02,08,02,16.40
2018,08,02,08,03,16.50
2018,08,02,08,04,16.60
2018,08,02,08,05,16.60
2018,08,02,08,06,16.70
2018,08,02,08,07,16.80
2018,08,02,08,08,16.90
2018,08,02,08,09,17.00
2018,08,02,08,10,17.10
2018,08,02,08,11,17.20
2018,08,02,08,12,17.30
2018,08,02,08,13,17.30
2018,08,02,08,14,17.40
2018,08,02,08,15,17.40
2018,08,02,08,16,17.50
2018,08,02,08,17,17.50
2018,08,02,08,18,17.60
2018,08,02,08,19,17.60
2018,08,02,08,20,17.70
2018,08,02,08,21,17.70
2018,08,02,08,22,17.70
2018,08,02,08,23,17.70
2018,08,02,08,24,17.80
2018,08,02,08,25,17.80
2018,08,02,08,26,17.80
2018,08,02,08,27,17.90
2018,08,02,08,28,18.00
2018,08,02,08,29,18.00
2018,08,02,08,30,18.10
2018,08,02,08,31,18.20
2018,08,02,08,32,18.20
2018,08,02,08,33,18.20
2018,08,02,08,34,18.20
2018,08,02,08,35,18.20
2018,08,02,08,36,18.20
2018,08,02,08,37,18.20
2018,08,02,08,38,18.20
2018,08,02,08,39,18.20
2018,08,02,08,40,18.20
2018,08,02,08,41,18.20
2018,08,02,08,42,18.20
2018,08,02,08,43,18.20
2018,08,02,08,44,18.30
2018,08,02,08,45,18.30
2018,08,02,08,46,18.30
2018,08,02,08,47,18.20
2018,08,02,08,48,18.20
2018,08,02,08,49,18.10
2018,08,02,08,50,18.10
2018,08,02,08,51,18.20
2018,08,02,08,52,18.30
2018,08,02,08,53,18.40
2018,08,02,08,54,18.50
2018,08,02,08,55,18.50
2018,08,02,08,56,18.60
2018,08,02,08,57,18.70
2018,08,02,08,58,18.70
2018,08,02,08,59,18.70
2018,08,02,09,00,18.70
2018,08,02,09,01,18.60
2018,08,02,09,02,18.60
2018,08,02,09,03,18.60
2018,08,02,09,04,18.60
2018,08,02,09,05,18.60
2018,08,02,09,06,18.60
2018,08,02,09,07,18.60
2018,08,02,09,08,18.60
2018,08,02,09,09,18.50
2018,08,02,09,10,18.40
2018,08,02,09,11,18.40
2018,08,02,09,12,18.30
2018,08,02,09,13,18.30
2018,08,02,09,14,18.30
2018,08,02,09,15,18.30
2018,08,02,09,16,18.30
2018,08,02,09,17,18.20
2018,08,02,09,18,18.20
2018,08,02,09,19,18.10
2018,08,02,09,20,18.10
2018,08,02,09,21,18.10
2018,08,02,09,22,18.00
2018,08,02,09,23,18.00
2018,08,02,09,24,17.90
2018,08,02,09,25,17.90
2018,08,02,09,26,17.90
2018,08,02,09,27,17.90
2018,08,02,09,28,17.90
2018,08,02,09,29,17.90
2018,08,02,09,30,17.90
2018,08,02,09,31,17.90
2018,08,02,09,32,17.90
2018,08,02,09,33,18.00
2018,08,02,09,34,18.00
2018,08,02,09,35,18.00
2018,08,02,09,36,18.00
2018,08,02,09,37,18.00
2018,08,02,09,38,17.90
2018,08,02,09,39,17.90
2018,08,02,09,40,17.90
2018,08,02,09,41,18.00
2018,08,02,09,42,18.00
2018,08,02,09,43,18.10
2018,08,02,09,44,18.10
2018,08,02,09,45,18.10
2018,08,02,09,46,18.10
2018,08,02,09,47,18.20
2018,08,02,09,48,18.20
2018,08,02,09,49,18.20
2018,08,02,09,50,18.30
2018,08,02,09,51,18.30
2018,08,02,09,52,18.40
2018,08,02,09,53,18.50
2018,08,02,09,54,18.60
2018,08,02,09,55,18.70
2018,08,02,09,56,18.70
2018,08,02,09,57,18.70
2018,08,02,09,58,18.80
2018,08,02,09,59,18.80
2018,08,02,10,00,18.80
2018,08,02,10,01,18.80
2018,08,02,10,02,18.80
2018,08,02,10,03,18.80
2018,08,02,10,04,18.80
2018,08,02,10,05,18.80
2018,08,02,10,06,18.90
2018,08,02,10,07,18.90
2018,08,02,10,08,18.80
2018,08,02,10,09,18.80
2018,08,02,10,10,18.80
2018,08,02,10,11,18.80
2018,08,02,10,12,18.90
2018,08,02,10,13,19.10
2018,08,02,10,14,19.30
2018,08,02,10,15,19.30
2018,08,02,10,16,19.20
2018,08,02,10,17,19.20
2018,08,02,10,18,19.10
2018,08,02,10,19,19.00
2018,08,02,10,20,18.90
2018,08,02,10,21,18.90
2018,08,02,10,22,18.80
2018,08,02,10,23,18.80
2018,08,02,10,24,18.70
2018,08,02,10,25,18.70
2018,08,02,10,26,18.70
2018,08,02,10,27,18.60
2018,08,02,10,28,18.60
2018,08,02,10,29,18.60
2018,08,02,10,30,18.60
2018,08,02,10,31,18.60
2018,08,02,10,32,18.70
2018,08,02,10,33,18.80
2018,08,02,10,34,18.90
2018,08,02,10,35,19.10
2018,08,02,10,36,19.20
2018,08,02,10,37,19.40
2018,08,02,10,38,19.50
2018,08,02,10,39,19.70
2018,08,02,10,40,19.70
2018,08,02,10,41,19.80
2018,08,02,10,42,19.80
2018,08,02,10,43,19.80
2018,08,02,10,44,19.70
2018,08,02,10,45,19.70
2018,08,02,10,46,19.60
2018,08,02,10,47,19.60
2018,08,02,10,48,19.50
2018,08,02,10,49,19.50
2018,08,02,10,50,19.40
2018,08,02,10,51,19.40
2018,08,02,10,52,19.50
2018,08,02,10,53,19.50
2018,08,02,10,54,19.50
2018,08,02,10,55,19.50
2018,08,02,10,56,19.40
2018,08,02,10,57,19.40
2018,08,02,10,58,19.40
2018,08,02,10,59,19.40
2018,08,02,11,00,19.40
2018,08,02,11,01,19.40
2018,08,02,11,02,19.40
2018,08,02,11,03,19.50
2018,08,02,11,04,19.60
2018,08,02,11,05,19.70
2018,08,02,11,06,19.70
2018,08,02,11,07,19.70
2018,08,02,11,08,19.60
2018,08,02,11,09,19.60
2018,08,02,11,10,19.60
2018,08,02,11,11,19.50
2018,08,02,11,12,19.50
2018,08,02,11,13,19.40
2018,08,02,11,14,19.40
2018,08,02,11,15,19.30
2018,08,02,11,16,19.40
2018,08,02,11,17,19.50
2018,08,02,11,18,19.80
2018,08,02,11,19,19.90
2018,08,02,11,20,20.00
2018,08,02,11,21,20.10
2018,08,02,11,22,20.00
2018,08,02,11,23,19.90
2018,08,02,11,24,19.80
2018,08,02,11,25,19.70
2018,08,02,11,26,19.70
2018,08,02,11,27,19.70
2018,08,02,11,28,19.70
2018,08,02,11,29,19.70
2018,08,02,11,30,19.80
2018,08,02,11,31,19.80
2018,08,02,11,32,19.70
2018,08,02,11,33,19.70
2018,08,02,11,34,19.80
2018,08,02,11,35,19.80
2018,08,02,11,36,19.80
2018,08,02,11,37,19.80
2018,08,02,11,38,19.90
2018,08,02,11,39,19.90
2018,08,02,11,40,19.90
2018,08,02,11,41,20.00
2018,08,02,11,42,20.00
2018,08,02,11,43,20.10
2018,08,02,11,44,20.20
2018,08,02,11,45,20.30
2018,08,02,11,46,20.30
2018,08,02,11,47,20.30
2018,08,02,11,48,20.40
2018,08,02,11,49,20.40
2018,08,02,11,50,20.50
2018,08,02,11,51,20.50
2018,08,02,11,52,20.60
2018,08,02,11,53,20.60
2018,08,02,11,54,20.50
2018,08,02,11,55,20.40
2018,08,02,11,56,20.40
2018,08,02,11,57,20.30
2018,08,02,11,58,20.30
2018,08,02,11,59,20.20
2018,08,02,12,00,20.20
2018,08,02,12,01,20.10
2018,08,02,12,02,20.20
2018,08,02,12,03,20.30
2018,08,02,12,04,20.30
2018,08,02,12,05,20.30
2018,08,02,12,06,20.30
2018,08,02,12,07,20.40
2018,08,02,12,08,20.50
2018,08,02,12,09,20.60
2018,08,02,12,10,20.60
2018,08,02,12,11,20.70
2018,08,02,12,12,20.70
2018,08,02,12,13,20.80
2018,08,02,12,14,20.80
2018,08,02,12,15,20.80
2018,08,02,12,16,20.90
2018,08,02,12,17,20.90
2018,08,02,12,18,20.90
2018,08,02,12,19,21.00
2018,08,02,12,20,21.10
2018,08,02,12,21,21.10
2018,08,02,12,22,21.20
2018,08,02,12,23,21.10
2018,08,02,12,24,21.10
2018,08,02,12,25,21.00
2018,08,02,12,26,21.10
2018,08,02,12,27,21.10
2018,08,02,12,28,21.10
2018,08,02,12,29,21.10
2018,08,02,12,30,21.10
2018,08,02,12,31,21.00
2018,08,02,12,32,20.80
2018,08,02,12,33,20.70
2018,08,02,12,34,20.60
2018,08,02,12,35,20.70
2018,08,02,12,36,20.60
2018,08,02,12,37,20.60
2018,08,02,12,38,20.70
2018,08,02,12,39,20.70
2018,08,02,12,40,20.70
2018,08,02,12,41,20.70
2018,08,02,12,42,20.70
2018,08,02,12,43,20.70
2018,08,02,12,44,20.60
2018,08,02,12,45,20.60
2018,08,02,12,46,20.60
2018,08,02,12,47,20.60
2018,08,02,12,48,20.60
2018,08,02,12,49,20.60
2018,08,02,12,50,20.60
2018,08,02,12,51,20.50
2018,08,02,12,52,20.50
2018,08,02,12,53,20.40
2018,08,02,12,54,20.30
2018,08,02,12,55,20.30
2018,08,02,12,56,20.30
2018,08,02,12,57,20.30
2018,08,02,12,58,20.30
2018,08,02,12,59,20.40
2018,08,02,13,00,20.40
2018,08,02,13,01,20.50
2018,08,02,13,02,20.50
2018,08,02,13,03,20.70
2018,08,02,13,04,20.80
2018,08,02,13,05,21.00
2018,08,02,13,06,21.10
2018,08,02,13,07,21.30
2018,08,02,13,08,21.40
2018,08,02,13,09,21.50
2018,08,02,13,10,21.50
2018,08,02,13,11,21.50
2018,08,02,13,12,21.40
2018,08,02,13,13,21.40
2018,08,02,13,14,21.30
2018,08,02,13,15,21.30
2018,08,02,13,16,21.30
2018,08,02,13,17,21.20
2018,08,02,13,18,21.20
2018,08,02,13,19,21.20
2018,08,02,13,20,21.30
2018,08,02,13,21,21.50
2018,08,02,13,22,21.60
2018,08,02,13,23,21.80
2018,08,02,13,24,21.90
2018,08,02,13,25,22.10
2018,08,02,13,26,22.10
2018,08,02,13,27,22.10
2018,08,02,13,28,22.10
2018,08,02,13,29,22.10
2018,08,02,13,30,22.10
2018,08,02,13,31,22.00
2018,08,02,13,32,21.90
2018,08,02,13,33,21.80
2018,08,02,13,34,21.70
2018,08,02,13,35,21.60
2018,08,02,13,36,21.50
2018,08,02,13,37,21.40
2018,08,02,13,38,21.30
2018,08,02,13,39,21.30
2018,08,02,13,40,21.40
2018,08,02,13,41,21.40
2018,08,02,13,42,21.50
2018,08,02,13,43,21.50
2018,08,02,13,44,21.50
2018,08,02,13,45,21.50
2018,08,02,13,46,21.60
2018,08,02,13,47,21.60
2018,08,02,13,48,21.50
2018,08,02,13,49,21.40
2018,08,02,13,50,21.50
2018,08,02,13,51,21.50
2018,08,02,13,52,21.60
2018,08,02,13,53,21.70
2018,08,02,13,54,21.70
2018,08,02,13,55,21.80
2018,08,02,13,56,21.80
2018,08,02,13,57,21.80
2018,08,02,13,58,21.70
2018,08,02,13,59,21.70
2018,08,02,14,00,21.70
2018,08,02,14,01,21.60
2018,08,02,14,02,21.60
2018,08,02,14,03,21.60
2018,08,02,14,04,21.60
2018,08,02,14,05,21.70
2018,08,02,14,06,21.70
2018,08,02,14,07,21.60
2018,08,02,14,08,21.40
2018,08,02,14,09,21.30
2018,08,02,14,10,21.30
2018,08,02,14,11,21.40
2018,08,02,14,12,21.50
2018,08,02,14,13,21.70
2018,08,02,14,14,21.80
2018,08,02,14,15,21.80
2018,08,02,14,16,21.80
2018,08,02,14,17,21.80
2018,08,02,14,18,21.80
2018,08,02,14,19,21.80
2018,08,02,14,20,21.90
2018,08,02,14,21,21.90
2018,08,02,14,22,22.00
2018,08,02,14,23,22.10
2018,08,02,14,24,22.20
2018,08,02,14,25,22.30
2018,08,02,14,26,22.50
2018,08,02,14,27,22.60
2018,08,02,14,28,22.60
2018,08,02,14,29,22.70
2018,08,02,14,30,22.50
2018,08,02,14,31,22.30
2018,08,02,14,32,22.00
2018,08,02,14,33,21.80
2018,08,02,14,34,21.70
2018,08,02,14,35,21.70
2018,08,02,14,36,21.70
2018,08,02,14,37,21.70
2018,08,02,14,38,21.70
2018,08,02,14,39,21.70
2018,08,02,14,40,21.60
2018,08,02,14,41,21.50
2018,08,02,14,42,21.50
2018,08,02,14,43,21.50
2018,08,02,14,44,21.50
2018,08,02,14,45,21.40
2018,08,02,14,46,21.30
2018,08,02,14,47,21.30
2018,08,02,14,48,21.20
2018,08,02,14,49,21.30
2018,08,02,14,50,21.40
2018,08,02,14,51,21.40
2018,08,02,14,52,21.40
2018,08,02,14,53,21.40
2018,08,02,14,54,21.30
2018,08,02,14,55,21.40
2018,08,02,14,56,21.50
2018,08,02,14,57,21.40
2018,08,02,14,58,21.30
2018,08,02,14,59,21.20
2018,08,02,15,00,21.20
2018,08,02,15,01,21.10
2018,08,02,15,02,21.10
2018,08,02,15,03,21.20
2018,08,02,15,04,21.20
2018,08,02,15,05,21.20
2018,08,02,15,06,21.20
2018,08,02,15,07,21.20
2018,08,02,15,08,21.20
2018,08,02,15,09,21.20
2018,08,02,15,10,21.20
2018,08,02,15,11,21.20
2018,08,02,15,12,21.30
2018,08,02,15,13,21.50
2018,08,02,15,14,21.50
2018,08,02,15,15,21.50
2018,08,02,15,16,21.40
2018,08,02,15,17,21.30
2018,08,02,15,18,21.20
2018,08,02,15,19,21.20
2018,08,02,15,20,21.30
2018,08,02,15,21,21.30
2018,08,02,15,22,21.40
2018,08,02,15,23,21.50
2018,08,02,15,24,21.40
2018,08,02,15,25,21.40
2018,08,02,15,26,21.40
2018,08,02,15,27,21.30
2018,08,02,15,28,21.30
2018,08,02,15,29,21.30
2018,08,02,15,30,21.30
2018,08,02,15,31,21.40
2018,08,02,15,32,21.50
2018,08,02,15,33,21.60
2018,08,02,15,34,21.60
2018,08,02,15,35,21.70
2018,08,02,15,36,21.80
2018,08,02,15,37,21.80
2018,08,02,15,38,21.90
2018,08,02,15,39,21.90
2018,08,02,15,40,21.90
2018,08,02,15,41,22.00
2018,08,02,15,42,21.90
2018,08,02,15,43,21.80
2018,08,02,15,44,21.70
2018,08,02,15,45,21.70
2018,08,02,15,46,21.70
2018,08,02,15,47,21.70
2018,08,02,15,48,21.80
2018,08,02,15,49,21.80
2018,08,02,15,50,21.80
2018,08,02,15,51,21.80
2018,08,02,15,52,21.80
2018,08,02,15,53,21.80
2018,08,02,15,54,21.80
2018,08,02,15,55,21.80
2018,08,02,15,56,21.80
2018,08,02,15,57,21.90
2018,08,02,15,58,21.90
2018,08,02,15,59,21.90
2018,08,02,16,00,21.80
2018,08,02,16,01,21.80
2018,08,02,16,02,21.70
2018,08,02,16,03,21.60
2018,08,02,16,04,21.60
2018,08,02,16,05,21.60
2018,08,02,16,06,21.70
2018,08,02,16,07,21.70
2018,08,02,16,08,21.60
2018,08,02,16,09,21.50
2018,08,02,16,10,21.40
2018,08,02,16,11,21.40
2018,08,02,16,12,21.30
2018,08,02,16,13,21.40
2018,08,02,16,14,21.40
2018,08,02,16,15,21.50
2018,08,02,16,16,21.60
2018,08,02,16,17,21.60
2018,08,02,16,18,21.70
2018,08,02,16,19,21.70
2018,08,02,16,20,21.80
2018,08,02,16,21,21.80
2018,08,02,16,22,21.80
2018,08,02,16,23,21.90
2018,08,02,16,24,21.90
2018,08,02,16,25,22.00
2018,08,02,16,26,22.00
2018,08,02,16,27,21.90
2018,08,02,16,28,22.00
2018,08,02,16,29,22.00
2018,08,02,16,30,22.10
2018,08,02,16,31,22.10
2018,08,02,16,32,22.00
2018,08,02,16,33,22.00
2018,08,02,16,34,21.90
2018,08,02,16,35,21.90
2018,08,02,16,36,21.90
2018,08,02,16,37,22.00
2018,08,02,16,38,22.00
2018,08,02,16,39,22.10
2018,08,02,16,40,22.10
2018,08,02,16,41,22.10
2018,08,02,16,42,22.20
2018,08,02,16,43,22.20
2018,08,02,16,44,22.20
2018,08,02,16,45,22.20
2018,08,02,16,46,22.10
2018,08,02,16,47,22.10
2018,08,02,16,48,21.90
2018,08,02,16,49,21.80
2018,08,02,16,50,21.90
2018,08,02,16,51,21.90
2018,08,02,16,52,22.10
2018,08,02,16,53,22.20
2018,08,02,16,54,22.30
2018,08,02,16,55,22.30
2018,08,02,16,56,22.30
2018,08,02,16,57,22.30
2018,08,02,16,58,22.30
2018,08,02,16,59,22.30
2018,08,02,17,00,22.30
2018,08,02,17,01,22.30
2018,08,02,17,02,22.20
2018,08,02,17,03,22.20
2018,08,02,17,04,22.20
2018,08,02,17,05,22.10
2018,08,02,17,06,22.10
2018,08,02,17,07,22.10
2018,08,02,17,08,22.10
2018,08,02,17,09,22.10
2018,08,02,17,10,22.00
2018,08,02,17,11,21.90
2018,08,02,17,12,21.70
2018,08,02,17,13,21.60
2018,08,02,17,14,21.50
2018,08,02,17,15,21.30
2018,08,02,17,16,21.20
2018,08,02,17,17,21.10
2018,08,02,17,18,21.10
2018,08,02,17,19,21.00